TimeEDT,TemperatureF,Dew PointF,Humidity,Sea Level PressureIn,VisibilityMPH,Wind Direction,Wind SpeedMPH,Gust SpeedMPH,PrecipitationIn,Events,Conditions,WindDirDegrees,DateUTC
12:53 AM,71.1,66.9,87,30.05,10.0,SSW,11.5,-,N/A,,Scattered Clouds,200,2013-07-09 04:53:00
1:53 AM,71.1,66.0,84,30.04,10.0,SW,3.5,-,N/A,,Clear,230,2013-07-09 05:53:00
2:53 AM,70.0,66.0,87,30.03,10.0,SSW,9.2,-,N/A,,Clear,200,2013-07-09 06:53:00
3:53 AM,70.0,66.0,87,30.03,10.0,SSW,6.9,-,N/A,,Clear,210,2013-07-09 07:53:00
4:53 AM,71.1,66.0,84,30.02,10.0,SSW,6.9,-,N/A,,Overcast,210,2013-07-09 08:53:00
5:53 AM,72.0,66.0,81,30.03,10.0,WSW,5.8,-,N/A,,Mostly Cloudy,240,2013-07-09 09:53:00
6:53 AM,71.1,66.9,87,30.02,5.0,SSW,13.8,21.9,0.00,Rain,Light Rain,200,2013-07-09 10:53:00
7:15 AM,71.6,66.2,83,30.03,10.0,SSW,11.5,18.4,0.00,,Overcast,200,2013-07-09 11:15:00
7:53 AM,71.1,66.0,84,30.03,10.0,South,17.3,-,0.00,Rain,Light Rain,190,2013-07-09 11:53:00
8:53 AM,71.1,66.9,87,30.02,10.0,South,15.0,-,0.01,,Overcast,190,2013-07-09 12:53:00
9:53 AM,73.0,66.9,81,30.02,10.0,SSW,13.8,27.6,N/A,,Overcast,200,2013-07-09 13:53:00
10:53 AM,73.9,68.0,82,30.01,10.0,South,15.0,-,N/A,,Overcast,190,2013-07-09 14:53:00
11:53 AM,73.9,68.0,82,30.01,9.0,South,15.0,23.0,N/A,,Overcast,190,2013-07-09 15:53:00
12:53 PM,77.0,69.1,76,30.00,10.0,SSW,15.0,23.0,N/A,,Overcast,200,2013-07-09 16:53:00
1:53 PM,77.0,69.1,76,29.99,10.0,SSW,13.8,-,N/A,,Overcast,200,2013-07-09 17:53:00
2:53 PM,75.9,69.1,79,29.99,10.0,WNW,10.4,-,N/A,,Overcast,290,2013-07-09 18:53:00
3:29 PM,78.8,69.8,74,29.99,10.0,WNW,10.4,-,N/A,,Mostly Cloudy,290,2013-07-09 19:29:00
3:53 PM,79.0,70.0,74,29.97,10.0,West,9.2,-,N/A,,Partly Cloudy,270,2013-07-09 19:53:00
4:53 PM,77.0,70.0,79,29.95,8.0,WNW,11.5,-,N/A,,Mostly Cloudy,300,2013-07-09 20:53:00
5:53 PM,79.0,71.1,77,29.93,8.0,SW,9.2,-,N/A,,Mostly Cloudy,220,2013-07-09 21:53:00
6:44 PM,78.8,71.6,78,29.94,8.0,West,10.4,-,N/A,,Mostly Cloudy,280,2013-07-09 22:44:00
6:53 PM,79.0,71.1,77,29.92,7.0,WNW,12.7,-,N/A,,Mostly Cloudy,290,2013-07-09 22:53:00
7:23 PM,77.0,69.8,78,29.94,6.0,WSW,9.2,-,N/A,,Haze,250,2013-07-09 23:23:00
7:53 PM,75.9,71.1,85,29.93,6.0,WSW,6.9,-,N/A,,Haze,240,2013-07-09 23:53:00
8:53 PM,73.0,70.0,90,29.93,5.0,WSW,4.6,-,N/A,,Clear,240,2013-07-10 00:53:00
9:53 PM,71.1,69.1,93,29.93,4.0,SSW,5.8,-,N/A,,Clear,210,2013-07-10 01:53:00
10:53 PM,72.0,69.1,91,29.92,7.0,SSW,8.1,-,N/A,,Clear,210,2013-07-10 02:53:00
11:53 PM,72.0,69.1,91,29.91,7.0,SSW,8.1,-,N/A,,Clear,210,2013-07-10 03:53:00